[[{"header":{"parameterUnit":"m.s-1","parameterCategory":1,"la1":30.2991,"la2":30.254,"lo1":-89.0895,"lo2":-89.0444,"dy":0.0017,"dx":0.0017,"nx":28,"ny":28,"refTime":"2023-11-02T09:00:00:Z","depth":0,"parameterNumber":2,"parameterNumberName":"U-component_of_WINDS"},"data":[0,0,0,0,0,0,0,0,0,0,0,0,0,0,0,0,0,0,0,0,0,0,0,0,0,0,0,0,0,0,0,0,0,0,0,0,0,0,0,0,0,0,0,0,0,0,0,0,0,0,0,0,0,0,0,0,0,0,-5.0794,-5.0795,0,-5.0891,-5.0892,-5.0893,-5.0758,-5.0753,-5.0748,-5.0744,-5.0842,-5.0849,-5.0856,0,0,0,0,0,0,0,0,0,0,0,0,0,-5.0491,-5.0498,-5.0794,-5.0795,-5.0796,-5.0891,-5.0892,-5.0893,-5.0759,-5.0753,-5.0747,-5.0742,-5.084,-5.0848,-5.0857,0,0,0,0,0,0,0,0,0,0,0,0,0,-5.0609,-5.05,-5.0794,-5.0741,-5.0737,-5.089,-5.0892,-5.0893,-5.076,-5.0753,-5.0746,-5.0739,-5.0837,-5.0848,-5.0858,-5.1068,0,0,-5.089,-5.0895,0,0,0,0,0,0,0,0,-5.0603,-5.062,-5.0747,-5.0745,-5.0741,-5.0805,-5.0821,-5.0952,-5.0762,-5.0751,-5.0744,-5.0735,-5.0836,-5.0846,-5.088,-5.1072,-5.1076,-5.0891,-5.0898,-5.0902,-5.0905,0,0,0,0,0,0,0,-5.0595,-5.0615,-5.0832,-5.0749,-5.0745,-5.0712,-5.072,-5.0845,-5.0833,-5.0752,-5.0742,-5.0755,-5.0832,-5.087,-5.0881,-5.1078,-5.0891,-5.0901,-5.0907,-5.0911,-5.1444,-5.1452,0,0,0,0,0,0,-5.0593,-5.0609,-5.0829,-5.0835,-5.0653,-5.0723,-5.0733,-5.0792,-5.0831,-5.083,-5.0762,-5.0749,-5.0855,-5.0869,-5.0884,-5.1129,-5.0902,-5.0912,-5.0918,-5.1437,-5.1446,-5.1455,0,0,0,0,0,0,-5.0587,-5.0614,-5.0825,-5.072,-5.0744,-5.0736,-5.0803,-5.0797,-5.0834,-5.0838,-5.0835,-5.0802,-5.085,-5.0869,-5.1022,-5.1131,-5.0917,-5.0927,-5.1428,-5.144,-5.145,-5.1624,0,0,0,0,0,0,-5.0579,-5.0613,-5.0692,-5.0723,-5.075,-5.0963,-5.081,-5.0804,-5.0853,-5.0838,-5.0876,-5.0875,-5.0846,-5.1007,-5.1033,-5.1142,-5.0935,-5.1418,-5.1433,-5.1447,-5.1608,-5.164,-5.1667,0,0,0,0,0,-5.0569,-5.0738,-5.0697,-5.0724,-5.085,-5.0969,-5.0985,-5.0948,-5.0863,-5.0942,-5.0945,-5.0874,-5.1116,-5.1024,-5.1052,-5.1166,-5.1411,-5.1429,-5.1446,-5.1595,-5.1634,-5.1666,0,0,0,0,0,0,-5.072,-5.0741,-5.0696,-5.088,-5.0924,-5.0946,-5.1045,-5.0991,-5.106,-5.1042,-5.0994,-5.1003,-5.1167,-5.1182,-5.1079,-5.1369,-5.1249,-5.1273,-5.1353,-5.139,-5.1419,-5.141,-5.0944,0,0,0,0,0,-5.0775,-5.0871,-5.0884,-5.1045,-5.1069,-5.1054,-5.1105,-5.1073,-5.1116,-5.1134,-5.1147,-5.1192,-5.1277,-5.1335,-5.1414,-5.1611,-5.1616,-5.1703,-5.1732,-5.1756,-5.1776,-5.1879,-5.1917,-5.1512,-5.1512,-5.1512,0,0,-5.089,-5.0913,-5.0976,-5.1076,-5.1106,-5.1205,-5.1071,-5.1182,-5.1254,-5.1151,-5.1295,-5.1307,-5.1354,-5.1529,-5.1607,-5.1546,-5.189,-5.1779,-5.1798,-5.1805,-5.1901,-5.1939,-5.1973,-5.1524,-5.1522,-5.152,0,0,-5.1147,-5.1176,-5.1312,-5.1345,-5.1393,-5.1382,-5.1415,-5.1446,-5.1449,-5.1594,-5.1518,-5.1604,-5.1753,-5.1788,-5.1826,-5.2098,-5.2035,-5.2126,-5.2278,-5.2378,-5.241,-5.2438,-5.2532,-5.2567,-5.2147,-5.2147,-5.2147,0,-5.1283,-5.143,-5.1389,-5.1505,-5.155,-5.1462,-5.1598,-5.1632,-5.1704,-5.1737,-5.1669,-5.1853,-5.1879,-5.2059,-5.2126,-5.216,-5.2195,-5.2119,-5.2409,-5.2437,-5.2462,-5.2551,-5.2587,-5.2158,-5.2156,-5.2155,-5.2154,0,-5.1592,-5.1696,-5.18,-5.187,-5.1928,-5.2054,-5.2031,-5.2094,-5.2058,-5.2054,-5.2201,-5.2229,-5.2311,-5.2353,-5.2319,-5.2529,-5.2489,-5.2417,-5.2294,-5.2512,-5.2594,-5.2629,-5.2173,-5.2169,-5.2166,-5.2163,0,0,-5.1946,-5.1993,-5.2032,-5.2061,-5.2108,-5.2186,-5.2308,-5.2389,-5.2442,-5.2495,-5.2594,-5.2723,-5.2655,-5.2698,-5.2668,-5.2757,-5.2967,-5.2672,-5.2672,-5.2723,-5.3197,-5.3248,-5.3289,-5.2926,-5.2933,-5.2938,-5.3192,0,-5.2201,-5.2411,-5.2378,-5.258,-5.2673,-5.2591,-5.2697,-5.2737,-5.2737,-5.2815,-5.2815,-5.2906,-5.2811,-5.2836,-5.2921,-5.2923,-5.306,-5.2905,-5.3016,-5.302,-5.3003,-5.3332,-5.3388,-5.3626,-5.3224,-5.323,-5.3234,0,-5.2526,-5.259,-5.2802,-5.2832,-5.2869,-5.2965,-5.3035,-5.3112,-5.3155,-5.3149,-5.3197,-5.315,-5.327,-5.3149,-5.3313,-5.3208,-5.3252,-5.326,-5.3268,-5.3274,-5.3137,-5.3344,-5.3701,-5.3736,-5.3285,-5.3281,-5.3277,0,-5.2758,-5.2898,-5.3042,-5.3071,-5.311,-5.3179,-5.3199,-5.3235,-5.3285,-5.3347,-5.3378,-5.3454,-5.3495,-5.3554,-5.3528,-5.3443,-5.3697,-5.3573,-5.3692,-5.3693,-5.3746,-5.3743,-5.4112,-5.3782,-5.3781,-5.3781,-5.378,0,-5.3044,-5.3176,-5.3146,-5.3234,-5.3379,-5.3341,-5.3485,-5.3495,-5.3528,-5.3615,-5.3551,-5.3635,-5.3597,-5.3678,-5.366,-5.3797,-5.3817,-5.3813,-5.3806,-5.3817,-5.3817,-5.3842,-5.3823,-5.379,-5.3788,-5.3786,-5.3784,0,-5.3326,-5.3313,-5.3463,-5.3489,-5.3498,-5.3604,-5.3625,-5.3707,-5.3703,-5.3815,-5.3839,-5.3832,-5.3924,-5.3905,-5.4007,-5.3994,-5.4165,-5.4139,-5.415,-5.4142,-5.4261,-5.4249,-5.4657,-5.4707,-5.4348,-5.4352,-5.4355,0,-5.3508,-5.3607,-5.3643,-5.3697,-5.3722,-5.3811,-5.3861,-5.3828,-5.3883,-5.3939,-5.4014,-5.4101,-5.4168,-5.4319,-5.4322,-5.4399,-5.4372,-5.451,-5.4383,-5.4391,-5.437,-5.4363,-5.4371,-5.4534,-5.4538,-5.4541,-5.4544,0,-5.383,-5.3818,-5.3893,-5.3967,-5.4029,-5.4086,-5.4135,-5.4184,-5.4154,-5.4219,-5.4312,-5.4365,-5.4468,-5.4554,-5.4626,-5.4645,-5.459,-5.4585,-5.4616,-5.4626,-5.4627,-5.4624,-5.4215,-5.4575,-5.4571,-5.4569,-5.4568,-5.4566,-5.4064,-5.4148,-5.4186,-5.4272,-5.4306,-5.4354,-5.4432,-5.4437,-5.4515,-5.4596,-5.4572,-5.4677,-5.4717,-5.4807,-5.4836,-5.4917,-5.4865,-5.4911,-5.4922,-5.4933,-5.4945,-5.4617,-5.4931,-5.493,-5.4929,-5.4928,-5.4927,0,-5.4379,-5.44,-5.448,-5.4551,-5.4619,-5.4563,-5.4615,-5.4675,-5.4768,-5.4811,-5.4878,-5.4984,-5.5067,-5.5078,-5.5156,-5.5219,-5.5196,-5.5241,-5.5233,-5.5238,-5.4989,-5.4953,-5.5258,-5.5258,-5.5258,-5.5258,-5.5258,-5.5258,-5.4551,-5.4688,-5.4681,-5.4835,-5.4854,-5.4957,-5.4991,-5.5035,-5.5068,-5.519,-5.5258,-5.5265,-5.5294,-5.5374,-5.5447,-5.5448,-5.5478,-5.5532,-5.5523,-5.5289,-5.5256,-5.5225,-5.519,-5.554,-5.5541,-5.5765,-5.5767,-5.5769]},{"header":{"parameterUnit":"m.s-1","parameterCategory":1,"la1":30.2991,"la2":30.254,"lo1":-89.0895,"lo2":-89.0444,"dy":0.0017,"dx":0.0017,"nx":28,"ny":28,"refTime":"2023-11-02T09:00:00:Z","depth":0,"parameterNumber":3,"parameterNumberName":"V-component_of_WINDS"},"data":[0,0,0,0,0,0,0,0,0,0,0,0,0,0,0,0,0,0,0,0,0,0,0,0,0,0,0,0,0,0,0,0,0,0,0,0,0,0,0,0,0,0,0,0,0,0,0,0,0,0,0,0,0,0,0,0,0,0,-0.8346,-0.8346,0,-0.8319,-0.8319,-0.8318,-0.8351,-0.8353,-0.8354,-0.8355,-0.8325,-0.8323,-0.8321,0,0,0,0,0,0,0,0,0,0,0,0,0,-0.8425,-0.8423,-0.8346,-0.8346,-0.8346,-0.8319,-0.8319,-0.8318,-0.8351,-0.8353,-0.8354,-0.8355,-0.8326,-0.8323,-0.8321,0,0,0,0,0,0,0,0,0,0,0,0,0,-0.8393,-0.8423,-0.8347,-0.8359,-0.836,-0.8319,-0.8318,-0.8318,-0.8351,-0.8353,-0.8354,-0.8356,-0.8327,-0.8324,-0.8321,-0.8266,0,0,-0.8312,-0.8311,0,0,0,0,0,0,0,0,-0.8395,-0.839,-0.8357,-0.8358,-0.8359,-0.834,-0.8335,-0.83,-0.835,-0.8354,-0.8355,-0.8357,-0.8329,-0.8326,-0.8316,-0.8264,-0.8263,-0.8312,-0.831,-0.8309,-0.8308,0,0,0,0,0,0,0,-0.8397,-0.8392,-0.8336,-0.8357,-0.8358,-0.8365,-0.8363,-0.8329,-0.8331,-0.8354,-0.8356,-0.8353,-0.8329,-0.8319,-0.8316,-0.8263,-0.8312,-0.8309,-0.8307,-0.8306,-0.8161,-0.8159,0,0,0,0,0,0,-0.8398,-0.8393,-0.8336,-0.8335,-0.8382,-0.8362,-0.8359,-0.8344,-0.8332,-0.8332,-0.8351,-0.8354,-0.8323,-0.8319,-0.8315,-0.8248,-0.8309,-0.8306,-0.8304,-0.8163,-0.8161,-0.8159,0,0,0,0,0,0,-0.84,-0.8393,-0.8338,-0.8365,-0.8358,-0.8359,-0.8342,-0.8343,-0.8333,-0.833,-0.833,-0.834,-0.8324,-0.8319,-0.8277,-0.8247,-0.8305,-0.8302,-0.8166,-0.8163,-0.816,-0.8114,0,0,0,0,0,0,-0.8402,-0.8393,-0.8373,-0.8364,-0.8357,-0.8301,-0.834,-0.8341,-0.8328,-0.8332,-0.832,-0.8319,-0.8326,-0.8281,-0.8274,-0.8244,-0.83,-0.8169,-0.8164,-0.8161,-0.8118,-0.8109,-0.8102,0,0,0,0,0,-0.8405,-0.8362,-0.8372,-0.8365,-0.8332,-0.8299,-0.8295,-0.8303,-0.8325,-0.8304,-0.8302,-0.832,-0.8252,-0.8277,-0.8269,-0.8238,-0.817,-0.8166,-0.8161,-0.8121,-0.8111,-0.8102,0,0,0,0,0,0,-0.8367,-0.8361,-0.8372,-0.8325,-0.8312,-0.8305,-0.8279,-0.8292,-0.8273,-0.8277,-0.8288,-0.8285,-0.824,-0.8235,-0.8263,-0.8182,-0.8215,-0.8208,-0.8187,-0.8177,-0.817,-0.8171,-0.8297,0,0,0,0,0,-0.8354,-0.8329,-0.8324,-0.8283,-0.8276,-0.8278,-0.8265,-0.8272,-0.8259,-0.8254,-0.8249,-0.8235,-0.821,-0.8194,-0.8171,-0.8118,-0.8114,-0.8092,-0.8084,-0.8078,-0.8071,-0.804,-0.803,-0.8143,-0.8143,-0.8143,0,0,-0.8325,-0.8318,-0.8302,-0.8275,-0.8266,-0.8239,-0.8274,-0.8244,-0.8223,-0.8249,-0.8209,-0.8204,-0.819,-0.8141,-0.8119,-0.8135,-0.8039,-0.8072,-0.8067,-0.8064,-0.8034,-0.8023,-0.8014,-0.814,-0.814,-0.8141,0,0,-0.8258,-0.8252,-0.8216,-0.8206,-0.8191,-0.8193,-0.8184,-0.8174,-0.8172,-0.8132,-0.815,-0.8125,-0.8084,-0.8071,-0.806,-0.7986,-0.8001,-0.7979,-0.7937,-0.7906,-0.7897,-0.7889,-0.7861,-0.7851,-0.7973,-0.7973,-0.7973,0,-0.8224,-0.8185,-0.8195,-0.8163,-0.815,-0.8172,-0.8134,-0.8124,-0.8103,-0.8093,-0.8111,-0.8057,-0.8049,-0.7997,-0.7979,-0.7969,-0.7958,-0.798,-0.7898,-0.789,-0.7883,-0.7856,-0.7845,-0.797,-0.797,-0.7971,-0.7971,0,-0.8142,-0.8114,-0.8086,-0.8065,-0.8049,-0.8014,-0.8018,-0.8,-0.8008,-0.8008,-0.7965,-0.7956,-0.793,-0.7919,-0.7927,-0.7867,-0.7877,-0.7896,-0.7929,-0.7869,-0.7843,-0.7833,-0.7966,-0.7967,-0.7968,-0.7968,0,0,-0.8052,-0.8035,-0.8025,-0.8014,-0.8,-0.7977,-0.7943,-0.7918,-0.7901,-0.7886,-0.7856,-0.7819,-0.7836,-0.7823,-0.783,-0.7803,-0.7743,-0.7826,-0.7826,-0.7809,-0.7673,-0.7657,-0.7645,-0.7753,-0.7751,-0.7749,-0.7673,0,-0.7983,-0.7924,-0.7931,-0.7873,-0.7846,-0.7866,-0.7836,-0.7823,-0.7821,-0.7796,-0.7794,-0.7767,-0.7793,-0.7785,-0.7759,-0.7755,-0.7715,-0.7761,-0.7723,-0.7722,-0.7724,-0.7632,-0.7615,-0.7544,-0.7663,-0.7662,-0.7661,0,-0.7895,-0.7876,-0.7815,-0.7803,-0.7791,-0.7764,-0.7741,-0.7718,-0.7703,-0.7703,-0.7687,-0.7698,-0.7662,-0.7696,-0.7644,-0.7676,-0.766,-0.7656,-0.7653,-0.7649,-0.7686,-0.7623,-0.7521,-0.751,-0.7646,-0.7647,-0.7648,0,-0.7832,-0.7791,-0.7749,-0.774,-0.7724,-0.7704,-0.7697,-0.7683,-0.7667,-0.7647,-0.7636,-0.7612,-0.7598,-0.7578,-0.7581,-0.7606,-0.7528,-0.7563,-0.7526,-0.7525,-0.7507,-0.7508,-0.74,-0.7501,-0.7501,-0.7501,-0.7501,0,-0.7754,-0.7715,-0.772,-0.7694,-0.7651,-0.7659,-0.7616,-0.7611,-0.7599,-0.7571,-0.7587,-0.7561,-0.7568,-0.7541,-0.7543,-0.7499,-0.7493,-0.7491,-0.7492,-0.7489,-0.7489,-0.7478,-0.7482,-0.7498,-0.7499,-0.7499,-0.75,0,-0.7676,-0.7678,-0.7632,-0.7621,-0.7617,-0.7586,-0.7576,-0.755,-0.7549,-0.7514,-0.7506,-0.7504,-0.7473,-0.7475,-0.744,-0.7441,-0.7386,-0.7394,-0.7391,-0.7392,-0.7354,-0.7356,-0.7234,-0.7217,-0.733,-0.7329,-0.7328,0,-0.7625,-0.7596,-0.7581,-0.7563,-0.7554,-0.7526,-0.7509,-0.7516,-0.7498,-0.7477,-0.7454,-0.7424,-0.7401,-0.735,-0.7345,-0.7318,-0.7324,-0.7282,-0.732,-0.7316,-0.732,-0.7321,-0.7317,-0.7275,-0.7273,-0.7272,-0.7271,0,-0.7533,-0.7535,-0.7511,-0.7485,-0.7465,-0.7446,-0.7428,-0.7413,-0.7417,-0.7396,-0.7364,-0.7346,-0.731,-0.7279,-0.7253,-0.7245,-0.7257,-0.726,-0.7249,-0.7245,-0.7243,-0.7241,-0.7369,-0.7262,-0.7263,-0.7264,-0.7264,-0.7265,-0.7466,-0.744,-0.7424,-0.7396,-0.7383,-0.7366,-0.7341,-0.7336,-0.731,-0.7281,-0.7287,-0.725,-0.7234,-0.72,-0.7189,-0.7159,-0.7174,-0.716,-0.7155,-0.7151,-0.7146,-0.7249,-0.7155,-0.7155,-0.7156,-0.7156,-0.7156,0,-0.7373,-0.7364,-0.7338,-0.7312,-0.7289,-0.7304,-0.7285,-0.7264,-0.7232,-0.7216,-0.7192,-0.7155,-0.7125,-0.7117,-0.7088,-0.7066,-0.7071,-0.7058,-0.7059,-0.7056,-0.7136,-0.7146,-0.7054,-0.7054,-0.7054,-0.7054,-0.7054,-0.7054,-0.7322,-0.7278,-0.7277,-0.7226,-0.7218,-0.7182,-0.717,-0.7153,-0.714,-0.7097,-0.7072,-0.7068,-0.7054,-0.7024,-0.6996,-0.6995,-0.6982,-0.6966,-0.6966,-0.7041,-0.7051,-0.706,-0.7071,-0.6964,-0.6964,-0.6889,-0.6888,-0.6888]}]]